Location: ???????????
(54.6970°N, 39.1477°E)
Time: 07:43:25
(UTC+00:00)

NOSS 2-1 (E) - Pass Details

Date: 19 May 2025
Orbit: 385 x 1749 km, 63.3° (Epoch: 07 May)

Event Time Altitude Azimuth Distance (km) Brightness Sun altitude
Exits shadow 20:35:17 33° 168° (SSE) 720 3.4 -14.7°
Maximum altitude 20:36:02 40° 133° (SE) 621 3.2 -14.8°
Drops below altitude 10° 20:38:54 10° 61° (ENE) 1,425 5.7 -14.8°
Sets 20:40:56 0° 53° (NE) 2,285 6.9 -14.9°
